Time,TemperatureF,DewpointF,PressureIn,WindDirection,WindDirectionDegrees,WindSpeedMPH,WindSpeedGustMPH,Humidity,HourlyPrecipIn,Conditions,Clouds,dailyrainin,SoftwareType,DateUTC
2013-01-07 00:01:00,72.1,67.0,30.07,SE,129,1.0,15.0,84,0.00,,---,0.00,VWS V14.00,2013-01-07 10:01:00,
2013-01-07 00:05:00,72.1,67.0,30.07,South,179,1.0,14.0,84,0.00,,---,0.00,VWS V14.00,2013-01-07 10:05:00,
2013-01-07 00:10:00,72.1,67.0,30.07,SE,130,11.0,15.0,84,0.00,,---,0.00,VWS V14.00,2013-01-07 10:10:00,
2013-01-07 00:15:00,72.1,66.7,30.07,SE,130,7.0,16.0,83,0.00,,---,0.00,VWS V14.00,2013-01-07 10:15:00,
2013-01-07 00:20:00,72.2,66.4,30.07,SE,129,9.0,17.0,82,0.00,,---,0.00,VWS V14.00,2013-01-07 10:20:00,
2013-01-07 00:25:00,72.3,66.8,30.06,NNE,32,1.0,19.0,83,0.00,,---,0.00,VWS V14.00,2013-01-07 10:25:00,
2013-01-07 00:30:00,72.4,66.9,30.06,SE,142,5.0,19.0,83,0.00,,---,0.00,VWS V14.00,2013-01-07 10:30:00,
2013-01-07 00:35:00,72.4,66.9,30.06,SE,141,6.0,11.0,83,0.00,,---,0.00,VWS V14.00,2013-01-07 10:35:00,
2013-01-07 00:40:00,72.4,66.9,30.06,North,5,0.0,11.0,83,0.00,,---,0.00,VWS V14.00,2013-01-07 10:40:00,
2013-01-07 00:45:00,72.5,67.1,30.06,SW,231,1.0,11.0,83,0.00,,---,0.00,VWS V14.00,2013-01-07 10:45:00,
2013-01-07 00:50:00,72.6,67.5,30.06,NE,36,2.0,11.0,84,0.00,,---,0.00,VWS V14.00,2013-01-07 10:50:00,
2013-01-07 00:55:00,72.6,67.2,30.06,ESE,120,7.0,14.0,83,0.00,,---,0.00,VWS V14.00,2013-01-07 10:55:00,
2013-01-07 01:00:00,72.7,66.9,30.05,SE,143,1.0,14.0,82,0.00,,---,0.00,VWS V14.00,2013-01-07 11:00:00,
2013-01-07 01:05:00,72.8,67.0,30.05,ENE,63,2.0,11.0,82,0.00,,---,0.00,VWS V14.00,2013-01-07 11:05:00,
2013-01-07 01:10:00,72.9,66.7,30.05,SSE,155,7.0,17.0,81,0.00,,---,0.00,VWS V14.00,2013-01-07 11:10:00,
2013-01-07 01:15:00,73.1,66.9,30.05,SE,127,2.0,17.0,81,0.00,,---,0.00,VWS V14.00,2013-01-07 11:15:00,
2013-01-07 01:20:00,73.2,67.0,30.05,ESE,115,0.0,17.0,81,0.00,,---,0.00,VWS V14.00,2013-01-07 11:20:00,
2013-01-07 01:25:00,73.2,67.0,30.05,East,84,4.0,17.0,81,0.00,,---,0.00,VWS V14.00,2013-01-07 11:25:00,
2013-01-07 01:31:00,73.1,66.6,30.05,ESE,109,22.0,26.0,80,0.00,,---,0.00,VWS V14.00,2013-01-07 11:31:00,
2013-01-07 01:36:00,73.0,66.5,30.05,ENE,70,7.0,20.0,80,0.00,,---,0.00,VWS V14.00,2013-01-07 11:36:00,
2013-01-07 01:41:00,72.9,66.7,30.05,ENE,77,6.0,20.0,81,0.00,,---,0.00,VWS V14.00,2013-01-07 11:41:00,
2013-01-07 01:46:00,72.8,66.3,30.05,SE,136,7.0,20.0,80,0.00,,---,0.00,VWS V14.00,2013-01-07 11:46:00,
2013-01-07 01:50:00,72.8,66.3,30.05,SE,139,9.0,20.0,80,0.00,,---,0.00,VWS V14.00,2013-01-07 11:50:00,
2013-01-07 01:55:00,72.8,66.6,30.04,ENE,74,2.0,20.0,81,0.00,,---,0.00,VWS V14.00,2013-01-07 11:55:00,
2013-01-07 02:00:00,72.8,66.6,30.04,ESE,110,4.0,20.0,81,0.00,,---,0.00,VWS V14.00,2013-01-07 12:00:00,
2013-01-07 02:05:00,72.7,66.5,30.04,NE,36,3.0,4.0,81,0.00,,---,0.00,VWS V14.00,2013-01-07 12:05:00,
2013-01-07 02:10:00,72.7,66.5,30.04,ENE,71,3.0,15.0,81,0.00,,---,0.00,VWS V14.00,2013-01-07 12:10:00,
2013-01-07 02:15:00,72.7,66.9,30.03,SE,126,4.0,15.0,82,0.00,,---,0.00,VWS V14.00,2013-01-07 12:15:00,
2013-01-07 02:20:00,72.6,66.4,30.04,ENE,59,3.0,15.0,81,0.00,,---,0.00,VWS V14.00,2013-01-07 12:20:00,
2013-01-07 02:25:00,72.7,66.9,30.03,NE,37,2.0,15.0,82,0.00,,---,0.00,VWS V14.00,2013-01-07 12:25:00,
2013-01-07 02:30:00,72.6,66.4,30.03,East,80,2.0,22.0,81,0.00,,---,0.00,VWS V14.00,2013-01-07 12:30:00,
2013-01-07 02:35:00,72.7,66.5,30.03,SE,126,11.0,14.0,81,0.00,,---,0.00,VWS V14.00,2013-01-07 12:35:00,
2013-01-07 02:40:00,72.7,66.2,30.03,NE,56,10.0,24.0,80,0.00,,---,0.00,VWS V14.00,2013-01-07 12:40:00,
2013-01-07 02:45:00,72.9,66.4,30.03,East,95,6.0,24.0,80,0.00,,---,0.00,VWS V14.00,2013-01-07 12:45:00,
2013-01-07 02:50:00,73.0,66.8,30.03,SE,136,0.0,24.0,81,0.00,,---,0.00,VWS V14.00,2013-01-07 12:50:00,
2013-01-07 02:56:00,73.0,66.8,30.03,SE,136,2.0,24.0,81,0.00,,---,0.00,VWS V14.00,2013-01-07 12:56:00,
2013-01-07 03:01:00,73.0,66.5,30.03,SSE,159,4.0,24.0,80,0.00,,---,0.00,VWS V14.00,2013-01-07 13:01:00,
2013-01-07 03:06:00,73.0,66.5,30.02,SE,140,4.0,18.0,80,0.00,,---,0.00,VWS V14.00,2013-01-07 13:06:00,
2013-01-07 03:10:00,73.1,66.6,30.03,SSE,151,5.0,18.0,80,0.00,,---,0.00,VWS V14.00,2013-01-07 13:10:00,
2013-01-07 03:15:00,73.2,66.7,30.02,SE,130,2.0,18.0,80,0.00,,---,0.00,VWS V14.00,2013-01-07 13:15:00,
2013-01-07 03:20:00,73.2,66.7,30.03,ESE,115,12.0,18.0,80,0.00,,---,0.00,VWS V14.00,2013-01-07 13:20:00,
2013-01-07 03:25:00,73.3,66.8,30.02,ENE,57,4.0,20.0,80,0.00,,---,0.00,VWS V14.00,2013-01-07 13:25:00,
2013-01-07 03:30:00,73.4,66.5,30.03,ESE,114,4.0,21.0,79,0.00,,---,0.00,VWS V14.00,2013-01-07 13:30:00,
2013-01-07 03:35:00,73.5,66.6,30.03,NE,55,6.0,14.0,79,0.00,,---,0.00,VWS V14.00,2013-01-07 13:35:00,
2013-01-07 03:40:00,73.5,67.0,30.03,East,97,2.0,14.0,80,0.00,,---,0.00,VWS V14.00,2013-01-07 13:40:00,
2013-01-07 03:45:00,73.5,67.0,30.03,SE,130,9.0,14.0,80,0.00,,---,0.00,VWS V14.00,2013-01-07 13:45:00,
2013-01-07 03:50:00,73.3,66.4,30.03,East,84,5.0,21.0,79,0.00,,---,0.00,VWS V14.00,2013-01-07 13:50:00,
2013-01-07 03:55:00,73.3,66.4,30.02,East,83,3.0,21.0,79,0.00,,---,0.00,VWS V14.00,2013-01-07 13:55:00,
2013-01-07 04:00:00,73.4,66.5,30.03,ESE,102,2.0,21.0,79,0.00,,---,0.00,VWS V14.00,2013-01-07 14:00:00,
2013-01-07 04:05:00,73.4,66.5,30.03,ENE,63,5.0,17.0,79,0.00,,---,0.00,VWS V14.00,2013-01-07 14:05:00,
2013-01-07 04:10:00,73.4,66.5,30.03,SE,136,4.0,17.0,79,0.00,,---,0.00,VWS V14.00,2013-01-07 14:10:00,
2013-01-07 04:15:00,73.4,66.9,30.03,SE,131,5.0,17.0,80,0.00,,---,0.00,VWS V14.00,2013-01-07 14:15:00,
2013-01-07 04:20:00,73.4,66.5,30.03,SE,138,0.0,17.0,79,0.00,,---,0.00,VWS V14.00,2013-01-07 14:20:00,
2013-01-07 04:25:00,73.5,66.6,30.03,SE,128,1.0,17.0,79,0.00,,---,0.00,VWS V14.00,2013-01-07 14:25:00,
2013-01-07 04:30:00,73.4,66.9,30.04,NNE,31,3.0,19.0,80,0.00,,---,0.00,VWS V14.00,2013-01-07 14:30:00,
2013-01-07 04:35:00,73.3,66.8,30.04,NE,34,1.0,5.0,80,0.00,,---,0.00,VWS V14.00,2013-01-07 14:35:00,
2013-01-07 04:40:00,73.1,66.9,30.04,ENE,62,2.0,6.0,81,0.00,,---,0.00,VWS V14.00,2013-01-07 14:40:00,
2013-01-07 04:45:00,73.0,66.8,30.04,SE,132,9.0,14.0,81,0.00,,---,0.00,VWS V14.00,2013-01-07 14:45:00,
2013-01-07 04:50:00,72.9,66.7,30.04,SE,127,2.0,15.0,81,0.00,,---,0.00,VWS V14.00,2013-01-07 14:50:00,
2013-01-07 04:55:00,72.9,66.0,30.04,ENE,71,4.0,15.0,79,0.00,,---,0.00,VWS V14.00,2013-01-07 14:55:00,
2013-01-07 05:00:00,73.0,66.1,30.05,NE,53,7.0,16.0,79,0.00,,---,0.00,VWS V14.00,2013-01-07 15:00:00,
2013-01-07 05:05:00,73.1,66.2,30.04,North,5,2.0,10.0,79,0.00,,---,0.00,VWS V14.00,2013-01-07 15:05:00,
2013-01-07 05:10:00,73.2,66.3,30.03,ENE,67,2.0,10.0,79,0.00,,---,0.00,VWS V14.00,2013-01-07 15:10:00,
2013-01-07 05:15:00,73.3,66.8,30.04,ENE,73,2.0,11.0,80,0.00,,---,0.00,VWS V14.00,2013-01-07 15:15:00,
2013-01-07 05:20:00,73.2,66.3,30.04,ESE,113,2.0,11.0,79,0.00,,---,0.00,VWS V14.00,2013-01-07 15:20:00,
2013-01-07 05:25:00,73.2,66.3,30.04,NE,56,2.0,12.0,79,0.00,,---,0.00,VWS V14.00,2013-01-07 15:25:00,
2013-01-07 05:30:00,73.3,66.4,30.04,East,86,2.0,12.0,79,0.00,,---,0.00,VWS V14.00,2013-01-07 15:30:00,
2013-01-07 05:35:00,73.3,66.8,30.04,North,360,7.0,11.0,80,0.00,,---,0.00,VWS V14.00,2013-01-07 15:35:00,
2013-01-07 05:40:00,73.3,66.4,30.05,NE,35,2.0,11.0,79,0.00,,---,0.00,VWS V14.00,2013-01-07 15:40:00,
2013-01-07 05:45:00,73.2,65.9,30.04,ENE,78,3.0,11.0,78,0.00,,---,0.00,VWS V14.00,2013-01-07 15:45:00,
2013-01-07 05:50:00,73.1,65.8,30.04,ENE,69,2.0,12.0,78,0.00,,---,0.00,VWS V14.00,2013-01-07 15:50:00,
2013-01-07 05:55:00,73.2,65.9,30.04,ENE,63,5.0,12.0,78,0.00,,---,0.00,VWS V14.00,2013-01-07 15:55:00,
2013-01-07 06:00:00,73.3,66.4,30.04,ENE,74,2.0,15.0,79,0.00,,---,0.00,VWS V14.00,2013-01-07 16:00:00,
2013-01-07 06:05:00,73.3,66.4,30.05,SE,145,4.0,11.0,79,0.00,,---,0.00,VWS V14.00,2013-01-07 16:05:00,
2013-01-07 06:10:00,73.2,66.3,30.04,SE,144,1.0,11.0,79,0.00,,---,0.00,VWS V14.00,2013-01-07 16:10:00,
2013-01-07 06:15:00,73.1,66.6,30.04,SE,143,2.0,14.0,80,0.00,,---,0.00,VWS V14.00,2013-01-07 16:15:00,
2013-01-07 06:20:00,73.0,66.5,30.05,SSE,167,4.0,14.0,80,0.00,,---,0.00,VWS V14.00,2013-01-07 16:20:00,
2013-01-07 06:25:00,72.9,66.4,30.05,SE,141,2.0,20.0,80,0.00,,---,0.00,VWS V14.00,2013-01-07 16:25:00,
2013-01-07 06:30:00,73.0,66.8,30.06,East,97,6.0,20.0,81,0.00,,---,0.00,VWS V14.00,2013-01-07 16:30:00,
2013-01-07 06:35:00,73.0,66.5,30.06,ESE,113,6.0,18.0,80,0.00,,---,0.00,VWS V14.00,2013-01-07 16:35:00,
2013-01-07 06:40:00,72.8,66.6,30.06,SE,134,2.0,18.0,81,0.00,,---,0.00,VWS V14.00,2013-01-07 16:40:00,
2013-01-07 06:45:00,72.6,66.8,30.06,NE,55,3.0,18.0,82,0.00,,---,0.00,VWS V14.00,2013-01-07 16:45:00,
2013-01-07 06:50:00,72.5,66.7,30.07,ENE,77,2.0,18.0,82,0.00,,---,0.00,VWS V14.00,2013-01-07 16:50:00,
2013-01-07 06:55:00,72.5,67.1,30.07,ENE,77,2.0,18.0,83,0.00,,---,0.00,VWS V14.00,2013-01-07 16:55:00,
2013-01-07 07:00:00,72.5,66.7,30.08,SE,138,10.0,18.0,82,0.00,,---,0.00,VWS V14.00,2013-01-07 17:00:00,
2013-01-07 07:05:00,72.2,65.7,30.07,ESE,103,4.0,16.0,80,0.00,,---,0.00,VWS V14.00,2013-01-07 17:05:00,
2013-01-07 07:10:00,72.3,65.4,30.08,SSE,152,11.0,21.0,79,0.00,,---,0.00,VWS V14.00,2013-01-07 17:10:00,
2013-01-07 07:15:00,72.6,66.4,30.08,NNE,28,0.0,21.0,81,0.00,,---,0.00,VWS V14.00,2013-01-07 17:15:00,
2013-01-07 07:20:00,72.5,66.3,30.08,SE,142,4.0,21.0,81,0.00,,---,0.00,VWS V14.00,2013-01-07 17:20:00,
2013-01-07 07:25:00,72.4,66.2,30.08,SE,129,7.0,21.0,81,0.00,,---,0.00,VWS V14.00,2013-01-07 17:25:00,
2013-01-07 07:30:00,72.4,66.2,30.08,West,281,2.0,21.0,81,0.00,,---,0.00,VWS V14.00,2013-01-07 17:30:00,
2013-01-07 07:35:00,72.5,66.7,30.08,SE,138,2.0,10.0,82,0.00,,---,0.00,VWS V14.00,2013-01-07 17:35:00,
2013-01-07 07:40:00,72.6,66.8,30.08,East,88,2.0,10.0,82,0.00,,---,0.00,VWS V14.00,2013-01-07 17:40:00,
2013-01-07 07:45:00,72.6,67.2,30.08,NW,313,2.0,10.0,83,0.00,,---,0.00,VWS V14.00,2013-01-07 17:45:00,
2013-01-07 07:50:00,72.8,67.3,30.08,NE,46,4.0,10.0,83,0.00,,---,0.00,VWS V14.00,2013-01-07 17:50:00,
2013-01-07 07:55:00,72.8,67.3,30.08,NE,38,4.0,10.0,83,0.00,,---,0.00,VWS V14.00,2013-01-07 17:55:00,
2013-01-07 08:00:00,72.7,67.2,30.09,ENE,67,3.0,10.0,83,0.00,,---,0.00,VWS V14.00,2013-01-07 18:00:00,
2013-01-07 08:05:00,72.7,67.2,30.09,NE,53,2.0,6.0,83,0.00,,---,0.00,VWS V14.00,2013-01-07 18:05:00,
2013-01-07 08:10:00,72.6,66.4,30.09,ESE,119,7.0,12.0,81,0.00,,---,0.00,VWS V14.00,2013-01-07 18:10:00,
2013-01-07 08:15:00,73.0,67.2,30.09,SSE,167,9.0,17.0,82,0.00,,---,0.00,VWS V14.00,2013-01-07 18:15:00,
2013-01-07 08:20:00,72.9,67.1,30.09,ESE,121,2.0,17.0,82,0.00,,---,0.00,VWS V14.00,2013-01-07 18:20:00,
2013-01-07 08:25:00,72.8,67.3,30.09,ESE,109,1.0,17.0,83,0.00,,---,0.00,VWS V14.00,2013-01-07 18:25:00,
2013-01-07 08:30:00,72.8,67.0,30.09,North,360,4.0,17.0,82,0.00,,---,0.00,VWS V14.00,2013-01-07 18:30:00,
2013-01-07 08:35:00,72.8,67.0,30.10,ENE,74,1.0,3.0,82,0.00,,---,0.00,VWS V14.00,2013-01-07 18:35:00,
2013-01-07 08:40:00,73.1,67.3,30.10,ENE,76,1.0,4.0,82,0.00,,---,0.00,VWS V14.00,2013-01-07 18:40:00,
2013-01-07 08:45:00,73.5,67.7,30.10,ENE,59,3.0,7.0,82,0.00,,---,0.00,VWS V14.00,2013-01-07 18:45:00,
2013-01-07 08:50:00,73.8,67.2,30.10,NNE,29,7.0,13.0,80,0.00,,---,0.00,VWS V14.00,2013-01-07 18:50:00,
2013-01-07 08:55:00,74.0,67.4,30.10,ESE,110,0.0,13.0,80,0.00,,---,0.00,VWS V14.00,2013-01-07 18:55:00,
2013-01-07 09:00:00,74.2,67.6,30.10,ENE,61,2.0,13.0,80,0.00,,---,0.00,VWS V14.00,2013-01-07 19:00:00,
2013-01-07 09:05:00,74.1,67.5,30.10,ENE,65,3.0,8.0,80,0.00,,---,0.00,VWS V14.00,2013-01-07 19:05:00,
2013-01-07 09:10:00,74.0,67.8,30.10,NE,40,2.0,11.0,81,0.00,,---,0.00,VWS V14.00,2013-01-07 19:10:00,
2013-01-07 09:15:00,74.0,67.8,30.10,NE,42,3.0,11.0,81,0.00,,---,0.00,VWS V14.00,2013-01-07 19:15:00,
2013-01-07 09:20:00,74.0,68.2,30.11,SE,140,5.0,11.0,82,0.00,,---,0.00,VWS V14.00,2013-01-07 19:20:00,
2013-01-07 09:25:00,73.5,67.3,30.11,NNE,31,1.0,14.0,81,0.00,,---,0.00,VWS V14.00,2013-01-07 19:25:00,
2013-01-07 09:30:00,72.8,66.6,30.10,ENE,59,5.0,14.0,81,0.00,,---,0.00,VWS V14.00,2013-01-07 19:30:00,
2013-01-07 09:35:00,72.8,67.3,30.10,NE,48,4.0,8.0,83,0.00,,---,0.00,VWS V14.00,2013-01-07 19:35:00,
2013-01-07 09:40:00,73.3,68.2,30.10,ESE,111,2.0,11.0,84,0.00,,---,0.00,VWS V14.00,2013-01-07 19:40:00,
2013-01-07 09:45:00,73.7,67.9,30.10,NE,49,2.0,14.0,82,0.00,,---,0.00,VWS V14.00,2013-01-07 19:45:00,
2013-01-07 09:50:00,74.2,68.4,30.11,NW,323,6.0,14.0,82,0.00,,---,0.00,VWS V14.00,2013-01-07 19:50:00,
2013-01-07 09:55:00,74.3,68.1,30.11,SE,140,4.0,14.0,81,0.00,,---,0.00,VWS V14.00,2013-01-07 19:55:00,
2013-01-07 10:00:00,74.3,68.1,30.11,SE,136,0.0,19.0,81,0.00,,---,0.00,VWS V14.00,2013-01-07 20:00:00,
2013-01-07 10:05:00,74.3,68.1,30.11,NNE,17,1.0,7.0,81,0.00,,---,0.00,VWS V14.00,2013-01-07 20:05:00,
2013-01-07 10:10:00,74.4,67.8,30.11,ENE,68,3.0,12.0,80,0.00,,---,0.00,VWS V14.00,2013-01-07 20:10:00,
2013-01-07 10:15:00,74.6,68.0,30.11,NE,49,3.0,12.0,80,0.00,,---,0.00,VWS V14.00,2013-01-07 20:15:00,
2013-01-07 10:19:00,74.7,67.8,30.11,ENE,76,4.0,12.0,79,0.00,,---,0.00,VWS V14.00,2013-01-07 20:19:00,
2013-01-07 10:24:00,74.8,67.9,30.11,NNE,24,8.0,12.0,79,0.00,,---,0.00,VWS V14.00,2013-01-07 20:24:00,
2013-01-07 10:29:00,74.6,67.7,30.11,ENE,66,7.0,17.0,79,0.00,,---,0.00,VWS V14.00,2013-01-07 20:29:00,
2013-01-07 10:34:00,74.7,67.8,30.11,NE,55,3.0,12.0,79,0.00,,---,0.00,VWS V14.00,2013-01-07 20:34:00,
2013-01-07 10:39:00,75.2,68.2,30.11,ENE,58,0.0,12.0,79,0.00,,---,0.00,VWS V14.00,2013-01-07 20:39:00,
2013-01-07 10:44:00,75.4,67.7,30.11,ENE,69,3.0,12.0,77,0.00,,---,0.00,VWS V14.00,2013-01-07 20:44:00,
2013-01-07 10:49:00,75.6,67.9,30.10,NE,51,2.0,12.0,77,0.00,,---,0.00,VWS V14.00,2013-01-07 20:49:00,
2013-01-07 10:54:00,75.8,67.7,30.11,ENE,68,3.0,12.0,76,0.00,,---,0.00,VWS V14.00,2013-01-07 20:54:00,
2013-01-07 10:59:00,75.5,67.4,30.10,NE,39,3.0,12.0,76,0.00,,---,0.00,VWS V14.00,2013-01-07 20:59:00,
2013-01-07 11:04:00,75.1,67.8,30.10,NE,46,5.0,7.0,78,0.00,,---,0.00,VWS V14.00,2013-01-07 21:04:00,
2013-01-07 11:09:00,74.4,67.8,30.10,NE,48,2.0,12.0,80,0.00,,---,0.01,VWS V14.00,2013-01-07 21:09:00,
2013-01-07 11:14:00,74.3,68.8,30.09,NNE,16,0.0,12.0,83,0.00,,---,0.01,VWS V14.00,2013-01-07 21:14:00,
2013-01-07 11:19:00,74.5,68.7,30.09,North,5,3.0,12.0,82,0.00,,---,0.01,VWS V14.00,2013-01-07 21:19:00,
2013-01-07 11:24:00,74.6,69.1,30.09,East,92,5.0,12.0,83,0.00,,---,0.01,VWS V14.00,2013-01-07 21:24:00,
2013-01-07 11:29:00,75.1,68.9,30.09,East,90,6.0,12.0,81,0.00,,---,0.01,VWS V14.00,2013-01-07 21:29:00,
2013-01-07 11:34:00,75.1,68.5,30.08,NE,53,2.0,6.0,80,0.00,,---,0.01,VWS V14.00,2013-01-07 21:34:00,
2013-01-07 11:39:00,74.8,68.2,30.08,ENE,58,13.0,13.0,80,0.00,,---,0.01,VWS V14.00,2013-01-07 21:39:00,
2013-01-07 11:44:00,74.5,68.7,30.07,SE,142,4.0,13.0,82,0.00,,---,0.01,VWS V14.00,2013-01-07 21:44:00,
2013-01-07 11:49:00,74.4,68.9,30.07,ENE,58,5.0,13.0,83,0.00,,---,0.01,VWS V14.00,2013-01-07 21:49:00,
2013-01-07 11:54:00,74.2,68.7,30.06,NE,47,1.0,13.0,83,0.00,,---,0.01,VWS V14.00,2013-01-07 21:54:00,
2013-01-07 11:59:00,74.2,68.4,30.06,NNW,338,2.0,13.0,82,0.00,,---,0.01,VWS V14.00,2013-01-07 21:59:00,
2013-01-07 12:04:00,74.7,68.8,30.06,NNE,13,2.0,4.0,82,0.00,,---,0.01,VWS V14.00,2013-01-07 22:04:00,
2013-01-07 12:09:00,75.2,69.0,30.06,NNE,30,0.0,7.0,81,0.00,,---,0.01,VWS V14.00,2013-01-07 22:09:00,
2013-01-07 12:14:00,75.6,68.6,30.06,NE,46,3.0,10.0,79,0.00,,---,0.01,VWS V14.00,2013-01-07 22:14:00,
2013-01-07 12:19:00,75.8,68.1,30.06,NE,47,1.0,11.0,77,0.00,,---,0.01,VWS V14.00,2013-01-07 22:19:00,
2013-01-07 12:24:00,76.1,68.8,30.05,NE,46,3.0,15.0,78,0.00,,---,0.01,VWS V14.00,2013-01-07 22:24:00,
2013-01-07 12:29:00,76.0,68.3,30.05,NE,40,11.0,17.0,77,0.00,,---,0.01,VWS V14.00,2013-01-07 22:29:00,
2013-01-07 12:34:00,76.0,67.9,30.04,ENE,65,8.0,12.0,76,0.00,,---,0.01,VWS V14.00,2013-01-07 22:34:00,
2013-01-07 12:39:00,76.2,68.8,30.04,NNE,14,3.0,12.0,78,0.00,,---,0.01,VWS V14.00,2013-01-07 22:39:00,
2013-01-07 12:44:00,76.2,68.1,30.04,East,92,4.0,12.0,76,0.00,,---,0.01,VWS V14.00,2013-01-07 22:44:00,
2013-01-07 12:49:00,76.4,68.3,30.03,North,360,5.0,12.0,76,0.00,,---,0.01,VWS V14.00,2013-01-07 22:49:00,
2013-01-07 12:54:00,76.7,68.2,30.03,NE,36,5.0,12.0,75,0.00,,---,0.01,VWS V14.00,2013-01-07 22:54:00,
2013-01-07 12:59:00,76.8,67.9,30.03,NNW,329,7.0,14.0,74,0.00,,---,0.01,VWS V14.00,2013-01-07 22:59:00,
2013-01-07 13:04:00,76.4,67.5,30.03,North,355,4.0,6.0,74,0.00,,---,0.01,VWS V14.00,2013-01-07 23:04:00,
2013-01-07 13:08:00,76.7,68.6,30.02,South,183,3.0,6.0,76,0.00,,---,0.01,VWS V14.00,2013-01-07 23:08:00,
2013-01-07 13:13:00,77.1,68.6,30.02,WSW,244,4.0,12.0,75,0.00,,---,0.01,VWS V14.00,2013-01-07 23:13:00,
2013-01-07 13:18:00,77.1,69.3,30.02,NNE,15,5.0,12.0,77,0.00,,---,0.01,VWS V14.00,2013-01-07 23:18:00,
2013-01-07 13:23:00,77.1,69.3,30.01,NNE,18,1.0,12.0,77,0.00,,---,0.01,VWS V14.00,2013-01-07 23:23:00,
2013-01-07 13:28:00,77.4,68.9,30.01,NNE,24,5.0,12.0,75,0.00,,---,0.01,VWS V14.00,2013-01-07 23:28:00,
2013-01-07 13:33:00,77.3,68.8,30.01,ENE,61,0.0,4.0,75,0.00,,---,0.01,VWS V14.00,2013-01-07 23:33:00,
2013-01-07 13:38:00,77.1,69.0,30.01,ENE,77,5.0,12.0,76,0.00,,---,0.01,VWS V14.00,2013-01-07 23:38:00,
2013-01-07 13:43:00,77.0,68.5,30.00,ENE,76,4.0,12.0,75,0.00,,---,0.01,VWS V14.00,2013-01-07 23:43:00,
2013-01-07 13:48:00,77.2,69.1,30.00,ENE,61,5.0,12.0,76,0.00,,---,0.01,VWS V14.00,2013-01-07 23:48:00,
2013-01-07 13:53:00,77.3,68.4,30.00,ENE,62,1.0,12.0,74,0.00,,---,0.01,VWS V14.00,2013-01-07 23:53:00,
2013-01-07 13:58:00,77.1,68.6,30.00,NNE,24,4.0,12.0,75,0.00,,---,0.01,VWS V14.00,2013-01-07 23:58:00,
2013-01-07 14:03:00,76.9,68.4,30.00,NE,56,6.0,10.0,75,0.00,,---,0.01,VWS V14.00,2013-01-08 00:03:00,
2013-01-07 14:08:00,76.6,68.1,30.00,NE,48,5.0,11.0,75,0.00,,---,0.01,VWS V14.00,2013-01-08 00:08:00,
2013-01-07 14:13:00,76.4,68.3,30.00,ENE,78,4.0,11.0,76,0.00,,---,0.01,VWS V14.00,2013-01-08 00:13:00,
2013-01-07 14:18:00,76.6,68.5,30.00,East,82,0.0,11.0,76,0.00,,---,0.01,VWS V14.00,2013-01-08 00:18:00,
2013-01-07 14:23:00,76.8,68.7,30.00,ENE,73,0.0,12.0,76,0.00,,---,0.01,VWS V14.00,2013-01-08 00:23:00,
2013-01-07 14:28:00,76.9,69.2,29.99,NE,52,2.0,12.0,77,0.00,,---,0.01,VWS V14.00,2013-01-08 00:28:00,
2013-01-07 14:33:00,77.0,68.9,29.99,East,84,3.0,3.0,76,0.00,,---,0.01,VWS V14.00,2013-01-08 00:33:00,
2013-01-07 14:38:00,77.3,68.8,29.99,NNE,24,3.0,7.0,75,0.00,,---,0.01,VWS V14.00,2013-01-08 00:38:00,
2013-01-07 14:43:00,77.0,68.9,29.99,NE,46,0.0,7.0,76,0.00,,---,0.01,VWS V14.00,2013-01-08 00:43:00,
2013-01-07 14:48:00,76.7,68.6,29.99,NE,34,5.0,8.0,76,0.00,,---,0.01,VWS V14.00,2013-01-08 00:48:00,
2013-01-07 14:53:00,76.2,68.8,29.99,NE,55,5.0,11.0,78,0.00,,---,0.01,VWS V14.00,2013-01-08 00:53:00,
2013-01-07 14:58:00,75.6,68.3,29.99,NNE,21,5.0,13.0,78,0.00,,---,0.01,VWS V14.00,2013-01-08 00:58:00,
2013-01-07 15:03:00,75.6,68.3,29.99,NE,42,6.0,6.0,78,0.00,,---,0.01,VWS V14.00,2013-01-08 01:03:00,
2013-01-07 15:08:00,75.5,67.8,29.99,NE,49,3.0,13.0,77,0.00,,---,0.01,VWS V14.00,2013-01-08 01:08:00,
2013-01-07 15:13:00,75.2,67.9,29.99,ENE,64,3.0,13.0,78,0.00,,---,0.01,VWS V14.00,2013-01-08 01:13:00,
2013-01-07 15:18:00,74.9,67.6,29.99,NE,56,3.0,14.0,78,0.00,,---,0.01,VWS V14.00,2013-01-08 01:18:00,
2013-01-07 15:23:00,75.0,68.1,29.99,ENE,57,2.0,14.0,79,0.00,,---,0.01,VWS V14.00,2013-01-08 01:23:00,
2013-01-07 15:28:00,75.3,68.0,29.99,NE,46,1.0,14.0,78,0.00,,---,0.01,VWS V14.00,2013-01-08 01:28:00,
2013-01-07 15:33:00,75.5,68.2,30.00,NE,38,2.0,2.0,78,0.00,,---,0.01,VWS V14.00,2013-01-08 01:33:00,
2013-01-07 15:38:00,75.0,67.7,30.00,SE,125,4.0,15.0,78,0.00,,---,0.01,VWS V14.00,2013-01-08 01:38:00,
2013-01-07 15:43:00,74.8,67.9,29.99,NE,53,5.0,15.0,79,0.00,,---,0.01,VWS V14.00,2013-01-08 01:43:00,
2013-01-07 15:48:00,74.7,68.1,29.99,NNE,17,5.0,15.0,80,0.00,,---,0.01,VWS V14.00,2013-01-08 01:48:00,
2013-01-07 15:53:00,74.6,68.0,30.00,NE,51,3.0,15.0,80,0.00,,---,0.01,VWS V14.00,2013-01-08 01:53:00,
2013-01-07 15:58:00,74.4,67.8,30.00,North,5,5.0,15.0,80,0.00,,---,0.01,VWS V14.00,2013-01-08 01:58:00,
2013-01-07 16:03:00,74.5,67.6,30.00,NE,39,4.0,11.0,79,0.00,,---,0.01,VWS V14.00,2013-01-08 02:03:00,
2013-01-07 16:08:00,74.6,67.7,30.00,NE,52,8.0,11.0,79,0.00,,---,0.01,VWS V14.00,2013-01-08 02:08:00,
2013-01-07 16:13:00,74.5,67.6,30.00,ENE,59,2.0,12.0,79,0.00,,---,0.01,VWS V14.00,2013-01-08 02:13:00,
2013-01-07 16:18:00,74.3,67.0,30.00,NE,53,3.0,12.0,78,0.00,,---,0.01,VWS V14.00,2013-01-08 02:18:00,
2013-01-07 16:23:00,74.1,66.8,29.99,SE,125,7.0,16.0,78,0.00,,---,0.01,VWS V14.00,2013-01-08 02:23:00,
2013-01-07 16:28:00,74.2,67.6,30.00,NNW,336,11.0,16.0,80,0.00,,---,0.01,VWS V14.00,2013-01-08 02:28:00,
2013-01-07 16:33:00,74.0,67.4,30.00,NE,55,3.0,10.0,80,0.00,,---,0.01,VWS V14.00,2013-01-08 02:33:00,
2013-01-07 16:38:00,73.8,67.2,30.00,NNE,26,5.0,12.0,80,0.00,,---,0.01,VWS V14.00,2013-01-08 02:38:00,
2013-01-07 16:43:00,73.7,67.5,30.00,NE,52,3.0,12.0,81,0.00,,---,0.01,VWS V14.00,2013-01-08 02:43:00,
2013-01-07 16:48:00,73.5,67.3,30.00,ENE,65,1.0,12.0,81,0.00,,---,0.01,VWS V14.00,2013-01-08 02:48:00,
2013-01-07 16:53:00,73.5,67.3,30.00,East,80,2.0,12.0,81,0.00,,---,0.01,VWS V14.00,2013-01-08 02:53:00,
2013-01-07 16:58:00,73.5,67.3,30.00,SE,132,2.0,12.0,81,0.00,,---,0.01,VWS V14.00,2013-01-08 02:58:00,
2013-01-07 17:03:00,73.4,66.9,30.00,ESE,109,2.0,11.0,80,0.00,,---,0.01,VWS V14.00,2013-01-08 03:03:00,
2013-01-07 17:08:00,73.5,66.6,30.00,NE,46,6.0,11.0,79,0.00,,---,0.01,VWS V14.00,2013-01-08 03:08:00,
2013-01-07 17:13:00,73.6,66.7,30.01,NE,53,7.0,13.0,79,0.00,,---,0.01,VWS V14.00,2013-01-08 03:13:00,
2013-01-07 17:18:00,73.6,66.3,30.00,SE,132,7.0,13.0,78,0.00,,---,0.01,VWS V14.00,2013-01-08 03:18:00,
2013-01-07 17:23:00,73.6,66.3,30.01,NE,56,4.0,13.0,78,0.00,,---,0.01,VWS V14.00,2013-01-08 03:23:00,
2013-01-07 17:28:00,73.7,66.4,30.01,NE,36,2.0,13.0,78,0.00,,---,0.01,VWS V14.00,2013-01-08 03:28:00,
2013-01-07 17:33:00,73.6,65.9,30.01,NE,55,10.0,11.0,77,0.00,,---,0.01,VWS V14.00,2013-01-08 03:33:00,
2013-01-07 17:38:00,73.6,66.3,30.01,ENE,63,5.0,11.0,78,0.00,,---,0.01,VWS V14.00,2013-01-08 03:38:00,
2013-01-07 17:43:00,73.7,67.2,30.01,ESE,104,2.0,11.0,80,0.00,,---,0.01,VWS V14.00,2013-01-08 03:43:00,
2013-01-07 17:48:00,73.7,67.5,30.01,NE,54,4.0,11.0,81,0.00,,---,0.01,VWS V14.00,2013-01-08 03:48:00,
2013-01-07 17:53:00,73.4,67.2,30.02,NE,53,2.0,11.0,81,0.00,,---,0.01,VWS V14.00,2013-01-08 03:53:00,
2013-01-07 17:58:00,73.2,67.4,30.01,NNE,22,1.0,11.0,82,0.00,,---,0.01,VWS V14.00,2013-01-08 03:58:00,
2013-01-07 18:03:00,73.1,67.3,30.02,ENE,61,3.0,7.0,82,0.00,,---,0.01,VWS V14.00,2013-01-08 04:03:00,
2013-01-07 18:08:00,73.0,67.2,30.02,NNE,17,3.0,10.0,82,0.00,,---,0.01,VWS V14.00,2013-01-08 04:08:00,
2013-01-07 18:13:00,73.0,67.5,30.02,NNE,20,4.0,10.0,83,0.00,,---,0.01,VWS V14.00,2013-01-08 04:13:00,
2013-01-07 18:18:00,72.8,67.3,30.03,East,81,3.0,10.0,83,0.00,,---,0.01,VWS V14.00,2013-01-08 04:18:00,
2013-01-07 18:23:00,72.8,67.3,30.03,ENE,74,2.0,10.0,83,0.00,,---,0.01,VWS V14.00,2013-01-08 04:23:00,
2013-01-07 18:28:00,72.7,67.2,30.03,NE,55,0.0,10.0,83,0.00,,---,0.01,VWS V14.00,2013-01-08 04:28:00,
2013-01-07 18:33:00,72.7,67.2,30.03,ESE,115,6.0,6.0,83,0.00,,---,0.01,VWS V14.00,2013-01-08 04:33:00,
2013-01-07 18:38:00,72.8,67.3,30.03,NE,40,4.0,10.0,83,0.00,,---,0.01,VWS V14.00,2013-01-08 04:38:00,
2013-01-07 18:43:00,72.8,67.3,30.03,NE,43,0.0,10.0,83,0.00,,---,0.01,VWS V14.00,2013-01-08 04:43:00,
2013-01-07 18:48:00,72.8,67.0,30.03,NNE,30,7.0,12.0,82,0.00,,---,0.01,VWS V14.00,2013-01-08 04:48:00,
2013-01-07 18:53:00,72.8,67.0,30.04,East,94,6.0,14.0,82,0.00,,---,0.01,VWS V14.00,2013-01-08 04:53:00,
2013-01-07 18:58:00,72.8,66.6,30.03,ENE,73,3.0,14.0,81,0.00,,---,0.01,VWS V14.00,2013-01-08 04:58:00,
2013-01-07 19:00:00,72.8,66.6,30.03,NNE,28,7.0,14.0,81,0.00,,---,0.01,VWS V14.00,2013-01-08 05:00:00,
2013-01-07 19:01:00,72.8,66.6,30.03,NE,53,4.0,14.0,81,0.00,,---,0.01,VWS V14.00,2013-01-08 05:01:00,
2013-01-07 19:02:00,72.8,66.6,30.03,East,83,2.0,14.0,81,0.00,,---,0.01,VWS V14.00,2013-01-08 05:02:00,
2013-01-07 19:03:00,72.8,66.6,30.03,East,83,2.0,4.0,81,0.00,,---,0.01,VWS V14.00,2013-01-08 05:03:00,
2013-01-07 19:08:00,72.8,66.6,30.03,NE,56,2.0,9.0,81,0.00,,---,0.01,VWS V14.00,2013-01-08 05:08:00,
2013-01-07 19:13:00,72.9,66.7,30.03,NE,38,3.0,10.0,81,0.00,,---,0.01,VWS V14.00,2013-01-08 05:13:00,
2013-01-07 19:18:00,72.9,66.7,30.03,NE,35,2.0,11.0,81,0.00,,---,0.01,VWS V14.00,2013-01-08 05:18:00,
2013-01-07 19:23:00,72.8,66.3,30.03,ENE,63,3.0,14.0,80,0.00,,---,0.01,VWS V14.00,2013-01-08 05:23:00,
2013-01-07 19:28:00,72.8,66.3,30.03,NE,55,6.0,14.0,80,0.00,,---,0.01,VWS V14.00,2013-01-08 05:28:00,
2013-01-07 19:33:00,72.8,66.3,30.03,NE,55,2.0,3.0,80,0.00,,---,0.01,VWS V14.00,2013-01-08 05:33:00,
2013-01-07 19:38:00,72.8,66.3,30.03,NE,52,10.0,14.0,80,0.00,,---,0.01,VWS V14.00,2013-01-08 05:38:00,
2013-01-07 19:43:00,73.0,66.8,30.03,East,90,2.0,14.0,81,0.00,,---,0.01,VWS V14.00,2013-01-08 05:43:00,
2013-01-07 19:48:00,73.0,66.8,30.04,ESE,112,4.0,14.0,81,0.00,,---,0.01,VWS V14.00,2013-01-08 05:48:00,
2013-01-07 19:53:00,72.9,66.7,30.04,NE,55,5.0,14.0,81,0.00,,---,0.01,VWS V14.00,2013-01-08 05:53:00,
2013-01-07 19:58:00,72.8,66.3,30.04,NE,53,1.0,14.0,80,0.00,,---,0.01,VWS V14.00,2013-01-08 05:58:00,
2013-01-07 20:03:00,72.9,66.7,30.04,NE,53,15.0,15.0,81,0.00,,---,0.01,VWS V14.00,2013-01-08 06:03:00,
2013-01-07 20:08:00,72.8,66.3,30.04,NE,53,2.0,15.0,80,0.00,,---,0.01,VWS V14.00,2013-01-08 06:08:00,
2013-01-07 20:13:00,72.8,66.3,30.03,NE,54,5.0,15.0,80,0.00,,---,0.01,VWS V14.00,2013-01-08 06:13:00,
2013-01-07 20:18:00,72.7,66.2,30.04,NE,49,12.0,18.0,80,0.00,,---,0.01,VWS V14.00,2013-01-08 06:18:00,
2013-01-07 20:23:00,72.7,66.2,30.04,ENE,57,0.0,18.0,80,0.00,,---,0.01,VWS V14.00,2013-01-08 06:23:00,
2013-01-07 20:28:00,72.6,66.1,30.04,NE,35,8.0,18.0,80,0.00,,---,0.01,VWS V14.00,2013-01-08 06:28:00,
2013-01-07 20:33:00,72.6,66.4,30.04,NE,34,0.0,0.0,81,0.00,,---,0.01,VWS V14.00,2013-01-08 06:33:00,
2013-01-07 20:38:00,72.5,66.3,30.04,NE,36,3.0,4.0,81,0.00,,---,0.01,VWS V14.00,2013-01-08 06:38:00,
2013-01-07 20:43:00,72.6,66.4,30.04,NE,55,1.0,14.0,81,0.00,,---,0.01,VWS V14.00,2013-01-08 06:43:00,
2013-01-07 20:48:00,72.7,66.5,30.04,NNE,30,6.0,14.0,81,0.00,,---,0.01,VWS V14.00,2013-01-08 06:48:00,
2013-01-07 20:53:00,72.7,66.5,30.04,NNE,19,4.0,14.0,81,0.00,,---,0.01,VWS V14.00,2013-01-08 06:53:00,
2013-01-07 20:58:00,72.8,67.0,30.04,NNE,18,0.0,14.0,82,0.00,,---,0.01,VWS V14.00,2013-01-08 06:58:00,
2013-01-07 21:03:00,72.7,66.5,30.04,NNE,24,5.0,6.0,81,0.00,,---,0.01,VWS V14.00,2013-01-08 07:03:00,
2013-01-07 21:08:00,72.7,66.5,30.04,ENE,69,1.0,6.0,81,0.00,,---,0.01,VWS V14.00,2013-01-08 07:08:00,
2013-01-07 21:13:00,72.7,66.5,30.04,NE,43,4.0,12.0,81,0.00,,---,0.01,VWS V14.00,2013-01-08 07:13:00,
2013-01-07 21:18:00,72.7,66.5,30.04,ENE,74,2.0,12.0,81,0.00,,---,0.01,VWS V14.00,2013-01-08 07:18:00,
2013-01-07 21:23:00,72.7,66.2,30.04,NE,48,3.0,12.0,80,0.00,,---,0.01,VWS V14.00,2013-01-08 07:23:00,
2013-01-07 21:28:00,72.6,66.1,30.04,ENE,69,2.0,12.0,80,0.00,,---,0.01,VWS V14.00,2013-01-08 07:28:00,
2013-01-07 21:33:00,72.6,66.1,30.04,SSE,166,2.0,2.0,80,0.00,,---,0.01,VWS V14.00,2013-01-08 07:33:00,
2013-01-07 21:38:00,72.6,66.4,30.05,ENE,64,3.0,11.0,81,0.00,,---,0.01,VWS V14.00,2013-01-08 07:38:00,
2013-01-07 21:43:00,72.6,66.4,30.05,NE,46,2.0,13.0,81,0.00,,---,0.01,VWS V14.00,2013-01-08 07:43:00,
2013-01-07 21:48:00,72.5,66.7,30.05,ENE,77,1.0,13.0,82,0.00,,---,0.01,VWS V14.00,2013-01-08 07:48:00,
2013-01-07 21:53:00,72.4,66.6,30.05,NW,325,2.0,13.0,82,0.00,,---,0.01,VWS V14.00,2013-01-08 07:53:00,
2013-01-07 21:58:00,72.4,66.2,30.05,NNE,23,2.0,13.0,81,0.00,,---,0.01,VWS V14.00,2013-01-08 07:58:00,
2013-01-07 22:03:00,72.5,66.7,30.05,NE,52,3.0,3.0,82,0.00,,---,0.01,VWS V14.00,2013-01-08 08:03:00,
2013-01-07 22:08:00,72.6,66.8,30.05,ENE,61,1.0,6.0,82,0.00,,---,0.01,VWS V14.00,2013-01-08 08:08:00,
2013-01-07 22:13:00,72.6,66.4,30.05,NNW,342,2.0,11.0,81,0.00,,---,0.01,VWS V14.00,2013-01-08 08:13:00,
2013-01-07 22:18:00,72.6,66.4,30.06,NNE,12,4.0,14.0,81,0.00,,---,0.01,VWS V14.00,2013-01-08 08:18:00,
2013-01-07 22:23:00,72.8,66.6,30.05,NNE,18,1.0,14.0,81,0.00,,---,0.01,VWS V14.00,2013-01-08 08:23:00,
2013-01-07 22:28:00,72.8,66.6,30.05,NNE,18,3.0,14.0,81,0.00,,---,0.01,VWS V14.00,2013-01-08 08:28:00,
2013-01-07 22:33:00,72.8,66.6,30.05,NE,55,2.0,3.0,81,0.00,,---,0.01,VWS V14.00,2013-01-08 08:33:00,
2013-01-07 22:38:00,72.8,66.3,30.06,NE,34,2.0,7.0,80,0.00,,---,0.01,VWS V14.00,2013-01-08 08:38:00,
2013-01-07 22:43:00,72.6,66.1,30.06,East,92,1.0,7.0,80,0.00,,---,0.01,VWS V14.00,2013-01-08 08:43:00,
2013-01-07 22:48:00,72.6,65.7,30.05,NE,54,3.0,8.0,79,0.00,,---,0.01,VWS V14.00,2013-01-08 08:48:00,
2013-01-07 22:53:00,72.7,66.2,30.05,SSE,147,0.0,8.0,80,0.00,,---,0.01,VWS V14.00,2013-01-08 08:53:00,
2013-01-07 22:58:00,72.8,66.3,30.05,SE,140,2.0,9.0,80,0.00,,---,0.01,VWS V14.00,2013-01-08 08:58:00,
2013-01-07 23:03:00,72.8,66.3,30.05,ENE,68,7.0,10.0,80,0.00,,---,0.01,VWS V14.00,2013-01-08 09:03:00,
2013-01-07 23:08:00,72.8,66.3,30.05,SSE,167,8.0,10.0,80,0.00,,---,0.01,VWS V14.00,2013-01-08 09:08:00,
2013-01-07 23:13:00,72.6,66.4,30.05,SE,132,0.0,11.0,81,0.00,,---,0.01,VWS V14.00,2013-01-08 09:13:00,
2013-01-07 23:18:00,72.4,66.6,30.04,ESE,105,2.0,11.0,82,0.00,,---,0.01,VWS V14.00,2013-01-08 09:18:00,
2013-01-07 23:23:00,72.3,66.8,30.04,ENE,66,7.0,14.0,83,0.00,,---,0.01,VWS V14.00,2013-01-08 09:23:00,
2013-01-07 23:28:00,72.3,66.8,30.03,SE,138,5.0,14.0,83,0.00,,---,0.01,VWS V14.00,2013-01-08 09:28:00,
2013-01-07 23:33:00,72.4,66.9,30.03,SE,142,5.0,5.0,83,0.00,,---,0.01,VWS V14.00,2013-01-08 09:33:00,
2013-01-07 23:38:00,72.4,66.9,30.03,ENE,59,5.0,14.0,83,0.00,,---,0.01,VWS V14.00,2013-01-08 09:38:00,
2013-01-07 23:43:00,72.5,67.1,30.03,NE,39,1.0,14.0,83,0.00,,---,0.01,VWS V14.00,2013-01-08 09:43:00,
2013-01-07 23:48:00,72.4,66.9,30.03,NE,39,5.0,14.0,83,0.00,,---,0.01,VWS V14.00,2013-01-08 09:48:00,
2013-01-07 23:53:00,72.3,67.2,30.03,NE,34,2.0,14.0,84,0.00,,---,0.01,VWS V14.00,2013-01-08 09:53:00,
2013-01-07 23:58:00,72.0,66.6,30.03,NE,44,1.0,14.0,83,0.00,,---,0.01,VWS V14.00,2013-01-08 09:58:00,